Location: Forestville
(38.4740°N, 122.8890°W)
Time: 17:12:09
(UTC-07:00)

Amateur Radio Satellites - All Passes

Search period start: 16 October 2017 16:42
Search period end: 17 October 2017 16:42
Location: Forestville, 38.4740°N, 122.8890°W

Satellite Date Start Highest point End Downlink Frequencies (MHz)
Time Altitude Azimuth
AO-7 16 Oct 17:08:02 17:15:02 30° 263° (W) 17:22:04 .
CUTE-I 16 Oct 17:23:55 17:27:06 16° 62° (ENE) 17:30:17 437.470
ITAMSAT 1 16 Oct 17:25:29 17:28:32 16° 268° (W) 17:31:37 435.822/435.867
nSIGHT-1 16 Oct 17:27:48 17:30:11 19° 25° (NNE) 17:32:34 .
Tancredo 1 16 Oct 17:34:02 17:35:38 20° 225° (SW) 17:37:12 437.200
HO-68 16 Oct 17:45:42 17:49:45 16° 55° (NE) 17:53:48 435.675
ITUPSAT 1 16 Oct 17:46:15 17:49:47 21° 294° (WNW) 17:53:17 437.325
LilacSat-2 16 Oct 17:49:21 17:52:33 26° 71° (ENE) 17:55:45 437.200
ISS 16 Oct 17:49:33 17:52:19 24° 28° (NNE) 17:55:04 437.550
XW-2F 16 Oct 17:53:30 17:56:37 25° 71° (ENE) 17:59:43 145.980 - 146.000
SO-50 16 Oct 17:53:46 17:58:15 51° 243° (WSW) 18:02:46 436.795
CUBESAT XI-V 16 Oct 17:56:37 18:01:06 54° 286° (WNW) 18:05:35 437.345
MOZHAYETS 4 16 Oct 17:59:09 18:01:00 12° 297° (WNW) 18:02:53
KAITUO 1B 16 Oct 17:59:23 18:02:20 22° 70° (ENE) 18:05:18 145.475/437.950
XW-2D 16 Oct 18:01:58 18:05:27 35° 73° (ENE) 18:08:56 145.860 - 145.880
BEESAT 16 Oct 18:05:46 18:08:02 13° 298° (WNW) 18:10:19 436.000
XW-2B 16 Oct 18:15:02 18:18:43 49° 75° (ENE) 18:22:24 145.730 - 145.750
DOVE 4 16 Oct 18:17:28 18:21:10 31° 264° (W) 18:24:58 437.250
KKS-1 16 Oct 18:18:10 18:22:39 72° 102° (ESE) 18:27:08 437.445
NUDT-PHONESAT 16 Oct 18:20:11 18:23:40 39° 74° (ENE) 18:27:10 437.300
PCSat 16 Oct 18:36:28 18:41:41 46° 57° (ENE) 18:46:51 145.827
XW-2C 16 Oct 18:37:52 18:41:41 79° 258° (WSW) 18:45:30 145.795 - 145.815
UWE-3 16 Oct 18:57:51 18:59:37 12° 63° (ENE) 19:01:22 435.000/436.395/437.385
CUTE-I 16 Oct 19:01:19 19:06:34 63° 258° (WSW) 19:11:52 437.470
STARS 16 Oct 19:03:06 19:07:35 89° 103° (ESE) 19:12:01 437.465
nSIGHT-1 16 Oct 19:03:32 19:06:42 57° 222° (SW) 19:09:51 .
LilacSat-2 16 Oct 19:23:57 19:26:47 19° 265° (W) 19:29:36 437.200
ISS 16 Oct 19:25:47 19:28:52 38° 225° (SW) 19:31:56 437.550
XW-2A 16 Oct 19:27:14 19:29:53 21° 71° (ENE) 19:32:33 145.665 - 145.685
CUTE 1.7 + AOD 2 16 Oct 19:27:39 19:31:52 74° 77° (ENE) 19:36:06 437.475
XW-2F 16 Oct 19:27:51 19:30:40 20° 265° (W) 19:33:29 145.980 - 146.000
HO-68 16 Oct 19:29:16 19:36:25 86° 74° (ENE) 19:43:39 435.675
KAITUO 1B 16 Oct 19:33:20 19:36:13 21° 265° (W) 19:39:07 145.475/437.950
XW-2D 16 Oct 19:37:40 19:39:44 14° 267° (W) 19:41:47 145.860 - 145.880
SEEDS 16 Oct 19:43:08 19:47:17 66° 76° (ENE) 19:51:26 437.485
CUBEBUG 2 16 Oct 19:43:52 19:48:24 64° 75° (ENE) 19:53:05 437.445
NUDT-PHONESAT 16 Oct 19:56:12 19:57:41 12° 268° (W) 19:59:10 437.300
KKS-1 16 Oct 19:57:26 19:58:34 11° 298° (WNW) 19:59:42 437.445
AO-73 16 Oct 19:59:28 20:03:13 26° 69° (ENE) 20:06:58 145.935
ZACube-1 16 Oct 20:18:11 20:22:31 45° 73° (ENE) 20:26:55 437.345
AAUSAT CUBESAT 2 16 Oct 20:19:54 20:24:01 76° 75° (ENE) 20:28:07 437.432
STRAND 1 16 Oct 20:20:09 20:25:10 48° 100° (E) 20:30:07 437.568
PCSat 16 Oct 20:20:35 20:24:44 23° 253° (WSW) 20:28:51 145.827
UWE-3 16 Oct 20:30:50 20:35:24 69° 259° (WSW) 20:40:05 435.000/436.395/437.385
YUBILEINY 16 Oct 20:53:54 21:02:09 42° 75° (ENE) 21:10:22 435.215
DELFI C3 16 Oct 20:54:09 20:55:49 12° 66° (ENE) 20:57:30 145.870
XW-2A 16 Oct 21:00:04 21:02:30 18° 265° (W) 21:04:57 145.665 - 145.685
Oscar 11 16 Oct 21:02:31 21:06:52 86° 77° (ENE) 21:11:13 .
Max Valier Satellite 16 Oct 21:06:10 21:07:31 12° 66° (ENE) 21:08:51 145.860
HO-68 16 Oct 21:21:00 21:24:55 15° 270° (W) 21:28:51 435.675
CUBEBUG 2 16 Oct 21:23:49 21:25:26 12° 271° (W) 21:27:04 437.445
BEESAT 3 16 Oct 21:24:53 21:26:54 13° 44° (NE) 21:28:54 437.485
AO-73 16 Oct 21:35:21 21:39:17 29° 264° (W) 21:43:16 145.935
FO-29 16 Oct 21:43:54 21:50:33 53° 100° (E) 21:57:52 435.910
ZACube-1 16 Oct 21:56:11 21:59:00 16° 268° (W) 22:01:49 437.345
STRAND 1 16 Oct 22:00:18 22:03:57 20° 295° (WNW) 22:07:35 437.568
O/OREOS (USA 219) 16 Oct 22:12:29 22:17:00 69° 292° (WNW) 22:21:36 437.305
DELFI C3 16 Oct 22:26:24 22:30:08 44° 261° (W) 22:33:54 145.870
ESTCUBE 1 16 Oct 22:30:46 22:31:13 10° 62° (ENE) 22:31:40 437.505/2401.250
BEESAT 2 16 Oct 22:34:54 22:38:02 21° 49° (NE) 22:41:08 435.950
EO-88 16 Oct 22:36:49 22:40:26 63° 259° (WSW) 22:44:05 145.990 - 145.960
Max Valier Satellite 16 Oct 22:37:20 22:40:54 43° 261° (W) 22:44:30 145.860
UNISAT 6 16 Oct 22:49:44 22:54:18 56° 100° (E) 22:58:45 437.425
YUBILEINY 16 Oct 22:50:51 22:58:48 40° 273° (W) 23:06:47 435.215
BEESAT 3 16 Oct 23:00:56 23:04:51 60° 242° (WSW) 23:08:39 437.485
TIGRISAT 16 Oct 23:05:38 23:10:19 78° 103° (ESE) 23:14:50 435.000
AO-85 16 Oct 23:15:45 23:20:08 43° 55° (NE) 23:24:48 145.980
AIST 2D 16 Oct 23:28:40 23:30:08 12° 92° (E) 23:31:35 435.315
FO-29 16 Oct 23:29:41 23:35:16 29° 294° (WNW) 23:41:20 435.910
PRISM 16 Oct 23:33:44 23:37:52 75° 103° (ESE) 23:41:58 437.425
LO-87 16 Oct 23:39:24 23:42:58 90° 136° (SE) 23:46:36 145.935 - 145.965
SPROUT 16 Oct 23:57:11 00:00:23 21° 68° (ENE) 00:03:36 437.525
ESTCUBE 1 17 Oct 00:02:51 00:07:21 77° 258° (WSW) 00:11:52 437.505/2401.250
VELOX 1 17 Oct 00:11:18 00:14:38 22° 67° (ENE) 00:17:58 145.980
BEESAT 2 17 Oct 00:12:10 00:15:49 33° 246° (WSW) 00:19:24 435.950
RS-15 17 Oct 00:16:10 00:25:46 28° 102° (ESE) 00:35:22 29.354- 29.394
UNISAT 6 17 Oct 00:28:02 00:30:28 14° 296° (WNW) 00:32:53 437.425
EO-79 17 Oct 00:36:08 00:39:58 32° 97° (E) 00:43:47 145.935-145.965
POLYITAN 1 17 Oct 00:39:38 00:43:35 35° 98° (E) 00:47:28 437.675
TIGRISAT 17 Oct 00:45:19 00:46:16 11° 298° (WNW) 00:47:12 435.000
AO-85 17 Oct 00:56:48 01:00:18 21° 248° (WSW) 01:03:59 145.980
QB50P2 17 Oct 00:59:22 01:03:38 69° 101° (E) 01:07:52 145.880/145.840
AIST 2D 17 Oct 01:00:17 01:03:24 31° 287° (WNW) 01:06:30 435.315
NANOSAT C BR1 17 Oct 01:06:45 01:11:00 67° 101° (ESE) 01:15:12 145.865
50 SAT 17 Oct 01:19:32 01:22:24 29° 72° (ENE) 01:25:16 437.505
DUCHIFAT 1 17 Oct 01:19:45 01:24:02 83° 104° (ESE) 01:28:14 145.980
DX 1 17 Oct 01:29:23 01:33:22 37° 71° (ENE) 01:37:23 434.975-435.025
SPROUT 17 Oct 01:32:17 01:36:03 31° 263° (W) 01:39:53 437.525
BUGSAT 1 17 Oct 01:43:22 01:47:18 36° 98° (E) 01:51:09 437.445
VELOX 1 17 Oct 01:46:58 01:50:52 31° 263° (W) 01:54:47 145.980
Oscar 19 17 Oct 01:55:07 01:59:17 24° 95° (E) 02:03:24 437.125/150
Gurwin Techsat 1B 17 Oct 01:55:59 01:59:28 17° 92° (E) 02:02:55 435.225
UKube-1 17 Oct 02:01:27 02:05:38 54° 73° (ENE) 02:09:50 .
EO-79 17 Oct 02:12:23 02:15:30 20° 293° (WNW) 02:18:35 145.935-145.965
POLYITAN 1 17 Oct 02:16:07 02:19:04 18° 293° (WNW) 02:22:00 437.675
RS-15 17 Oct 02:24:40 02:36:58 80° 302° (WNW) 02:49:22 29.354- 29.394
QB50P2 17 Oct 02:38:22 02:38:48 10° 297° (WNW) 02:39:14 145.880/145.840
NANOSAT C BR1 17 Oct 02:45:19 02:46:05 10° 297° (WNW) 02:46:51 145.865
50 SAT 17 Oct 02:53:33 02:54:47 12° 267° (W) 02:56:01 437.505
M-CUBED/EXP-1 PRIME 17 Oct 03:05:50 03:09:18 68° 289° (WNW) 03:13:00 437.505
DX 1 17 Oct 03:06:50 03:09:40 17° 266° (W) 03:12:31 434.975-435.025
ITUPSAT 1 17 Oct 03:12:51 03:17:19 40° 70° (ENE) 03:21:48 437.325
AO-7 17 Oct 03:18:46 03:24:10 18° 92° (E) 03:29:32 .
BUGSAT 1 17 Oct 03:19:28 03:22:20 18° 293° (WNW) 03:25:11 437.445
MOZHAYETS 4 17 Oct 03:19:54 03:24:23 51° 73° (ENE) 03:28:53
CUBESAT XI-V 17 Oct 03:23:59 03:25:45 12° 63° (ENE) 03:27:32 437.345
BEESAT 17 Oct 03:30:42 03:35:25 63° 74° (ENE) 03:40:10 436.000
Oscar 19 17 Oct 03:33:59 03:38:38 36° 291° (WNW) 03:43:16 437.125/150
Gurwin Techsat 1B 17 Oct 03:34:31 03:39:42 54° 288° (WNW) 03:44:51 435.225
UKube-1 17 Oct 03:40:26 03:41:57 12° 268° (W) 03:43:28 .
NO-84 17 Oct 03:51:20 03:54:46 23° 125° (SE) 03:58:11 435.350 FM
ITAMSAT 1 17 Oct 03:58:39 04:02:44 23° 95° (E) 04:06:47 435.822/435.867
RS-15 17 Oct 04:41:37 04:51:46 28° 328° (NNW) 05:01:52 29.354- 29.394
ITUPSAT 1 17 Oct 04:51:46 04:55:15 20° 266° (W) 04:58:45 437.325
CUBESAT XI-V 17 Oct 04:57:55 05:02:32 67° 259° (WSW) 05:07:09 437.345
MOZHAYETS 4 17 Oct 04:59:17 05:01:48 14° 268° (W) 05:04:20
AO-7 17 Oct 05:09:24 05:17:44 84° 288° (WNW) 05:26:03 .
BEESAT 17 Oct 05:11:38 05:13:34 12° 269° (W) 05:15:32 436.000
KKS-1 17 Oct 05:14:28 05:18:46 54° 73° (ENE) 05:23:06 437.445
NO-84 17 Oct 05:27:51 05:32:00 46° 320° (NW) 05:36:03 435.350 FM
ITAMSAT 1 17 Oct 05:37:24 05:42:17 41° 290° (WNW) 05:47:10 435.822/435.867
STARS 17 Oct 05:57:50 06:02:08 65° 75° (ENE) 06:06:31 437.465
XW-2C 17 Oct 06:13:52 06:15:03 11° 92° (E) 06:16:14 145.795 - 145.815
DOVE 4 17 Oct 06:15:53 06:20:48 70° 102° (ESE) 06:25:57 437.250
O/OREOS (USA 219) 17 Oct 06:45:44 06:48:52 18° 57° (ENE) 06:51:59 437.305
KKS-1 17 Oct 06:53:44 06:55:37 12° 268° (W) 06:57:31 437.445
LilacSat-2 17 Oct 06:57:20 07:00:58 45° 99° (E) 07:04:33 437.200
XW-2F 17 Oct 07:00:06 07:03:39 42° 99° (E) 07:07:11 145.980 - 146.000
HO-68 17 Oct 07:00:27 07:04:55 17° 91° (E) 07:09:21 435.675
RS-15 17 Oct 07:02:31 07:10:17 18° 4° (N) 07:17:53 29.354- 29.394
AO-7 17 Oct 07:04:05 07:09:18 19° 308° (NW) 07:14:30 .
KAITUO 1B 17 Oct 07:04:48 07:08:14 36° 98° (E) 07:11:39 145.475/437.950
NO-84 17 Oct 07:08:27 07:10:15 12° 339° (NNW) 07:12:01 435.350 FM
XW-2D 17 Oct 07:09:23 07:13:06 64° 100° (E) 07:16:48 145.860 - 145.880
CUTE 1.7 + AOD 2 17 Oct 07:15:24 07:17:35 14° 92° (E) 07:19:45 437.475
CUTE-I 17 Oct 07:19:41 07:25:00 58° 101° (E) 07:30:16 437.470
XW-2B 17 Oct 07:22:41 07:26:26 88° 290° (WNW) 07:30:10 145.730 - 145.750
NUDT-PHONESAT 17 Oct 07:25:02 07:28:41 68° 101° (E) 07:32:18 437.300
SEEDS 17 Oct 07:30:14 07:31:50 12° 91° (E) 07:33:25 437.485
STRAND 1 17 Oct 07:34:25 07:39:26 59° 73° (ENE) 07:44:30 437.568
CUBEBUG 2 17 Oct 07:37:34 07:40:22 16° 91° (E) 07:43:07 437.445
STARS 17 Oct 07:38:33 07:38:53 10° 269° (W) 07:39:12 437.465
XW-2C 17 Oct 07:45:53 07:49:25 41° 286° (WNW) 07:52:57 145.795 - 145.815
DOVE 4 17 Oct 07:55:34 07:57:56 14° 296° (WNW) 08:00:22 437.250
FO-29 17 Oct 07:58:25 08:01:16 15° 60° (ENE) 08:04:12 435.910
AAUSAT CUBESAT 2 17 Oct 08:04:58 08:06:52 13° 92° (E) 08:08:46 437.432
SO-50 17 Oct 08:06:12 08:10:40 73° 119° (ESE) 08:15:09 436.795
XW-2A 17 Oct 08:22:11 08:25:02 25° 96° (E) 08:27:51 145.665 - 145.685
UWE-3 17 Oct 08:22:28 08:26:20 27° 95° (E) 08:30:03 435.000/436.395/437.385
O/OREOS (USA 219) 17 Oct 08:24:07 08:28:31 45° 254° (WSW) 08:32:53 437.305
LilacSat-2 17 Oct 08:33:35 08:34:47 11° 294° (WNW) 08:36:00 437.200
XW-2F 17 Oct 08:35:57 08:37:21 12° 294° (WNW) 08:38:45 145.980 - 146.000
KAITUO 1B 17 Oct 08:40:07 08:41:52 13° 293° (WNW) 08:43:37 145.475/437.950
HO-68 17 Oct 08:46:05 08:53:19 80° 287° (WNW) 09:00:29 435.675
CUTE 1.7 + AOD 2 17 Oct 08:49:37 08:53:36 43° 287° (WNW) 08:57:35 437.475
Oscar 11 17 Oct 08:52:11 08:55:03 17° 93° (E) 08:57:54 .
CUTE-I 17 Oct 09:01:02 09:04:32 18° 297° (WNW) 09:08:01 437.470
SEEDS 17 Oct 09:03:44 09:07:46 49° 286° (WNW) 09:11:47 437.485
CUBEBUG 2 17 Oct 09:12:44 09:17:13 46° 287° (WNW) 09:21:34 437.445
STRAND 1 17 Oct 09:16:09 09:18:59 15° 269° (W) 09:21:50 437.568
PCSat 17 Oct 09:16:19 09:21:35 57° 113° (ESE) 09:26:54 145.827
RS-15 17 Oct 09:17:15 09:28:01 36° 39° (NE) 09:38:14 29.354- 29.394
AO-73 17 Oct 09:24:07 09:28:29 61° 101° (E) 09:32:41 145.935
Tancredo 1 17 Oct 09:26:22 09:28:02 30° 136° (SE) 09:29:43 437.200
AAUSAT CUBESAT 2 17 Oct 09:38:35 09:42:31 45° 286° (WNW) 09:46:27 437.432
FO-29 17 Oct 09:40:37 09:45:44 63° 259° (W) 09:51:06 435.910
ZACube-1 17 Oct 09:43:57 09:48:21 69° 284° (WNW) 09:52:36 437.345
UNISAT 6 17 Oct 09:46:36 09:50:55 41° 72° (ENE) 09:55:18 437.425
SO-50 17 Oct 09:49:08 09:51:37 14° 317° (NW) 09:54:08 436.795
YUBILEINY 17 Oct 09:52:48 10:01:03 51° 89° (E) 10:09:21 435.215
XW-2A 17 Oct 09:55:36 09:57:30 14° 292° (WNW) 09:59:24 145.665 - 145.685
JUGNU 17 Oct 09:57:24 09:59:21 12° 180° (S) 10:01:17 437.505
UWE-3 17 Oct 09:58:54 10:02:39 26° 291° (WNW) 10:06:19 435.000/436.395/437.385
TIGRISAT 17 Oct 10:02:12 10:06:41 55° 74° (ENE) 10:11:17 435.000
DELFI C3 17 Oct 10:04:47 10:07:58 23° 95° (E) 10:11:08 145.870
EO-88 17 Oct 10:08:41 10:09:55 11° 92° (E) 10:11:08 145.990 - 145.960
Max Valier Satellite 17 Oct 10:09:17 10:11:46 17° 94° (E) 10:14:13 145.860
PRISM 17 Oct 10:21:20 10:25:07 40° 72° (ENE) 10:28:55 437.425
NO-84 17 Oct 10:26:38 10:28:20 13° 22° (NNE) 10:30:00 435.350 FM
Oscar 11 17 Oct 10:27:20 10:31:17 36° 288° (WNW) 10:35:13 .
ISS 17 Oct 10:29:51 10:31:24 13° 128° (SE) 10:32:57 437.550
HO-68 17 Oct 10:36:12 10:39:54 15° 306° (NW) 10:43:34 435.675
PCSat 17 Oct 11:01:15 11:05:21 21° 311° (NW) 11:09:27 145.827
AO-73 17 Oct 11:02:33 11:04:06 12° 297° (WNW) 11:05:38 145.935
UNISAT 6 17 Oct 11:24:35 11:27:46 18° 267° (W) 11:30:59 437.425
EO-79 17 Oct 11:27:23 11:30:34 21° 68° (ENE) 11:33:45 145.935-145.965
RS-15 17 Oct 11:29:50 11:41:40 76° 244° (WSW) 11:52:50 29.354- 29.394
POLYITAN 1 17 Oct 11:30:55 11:34:16 23° 68° (ENE) 11:37:38 437.675
AIST 2D 17 Oct 11:32:11 11:35:39 62° 77° (ENE) 11:39:08 435.315
DELFI C3 17 Oct 11:39:26 11:42:36 23° 290° (WNW) 11:45:46 145.870
nSIGHT-1 17 Oct 11:40:04 11:43:15 89° 314° (NW) 11:46:27 .
EO-88 17 Oct 11:40:20 11:43:43 38° 287° (WNW) 11:47:05 145.990 - 145.960
TIGRISAT 17 Oct 11:41:25 11:43:42 14° 269° (W) 11:46:00 435.000
Max Valier Satellite 17 Oct 11:42:28 11:45:34 26° 289° (WNW) 11:48:39 145.860
QB50P2 17 Oct 11:50:09 11:54:09 41° 72° (ENE) 11:58:11 145.880/145.840
YUBILEINY 17 Oct 11:50:29 11:58:05 33° 288° (WNW) 12:05:45 435.215
NANOSAT C BR1 17 Oct 11:57:02 12:00:59 39° 72° (ENE) 12:04:57 145.865
ESTCUBE 1 17 Oct 11:57:12 12:00:52 24° 96° (E) 12:04:29 437.505/2401.250
PRISM 17 Oct 11:58:27 12:00:33 14° 267° (W) 12:02:40 437.425
NO-84 17 Oct 12:02:49 12:06:29 61° 42° (NE) 12:09:48 435.350 FM
ISS 17 Oct 12:04:18 12:07:31 58° 324° (NW) 12:10:43 437.550
DUCHIFAT 1 17 Oct 12:09:36 12:13:40 47° 73° (ENE) 12:17:46 145.980
SRMSAT 17 Oct 12:13:56 12:16:00 12° 177° (S) 12:18:04 437.500
BUGSAT 1 17 Oct 12:31:53 12:35:02 21° 68° (ENE) 12:38:14 437.445
LO-87 17 Oct 12:40:45 12:44:20 57° 285° (WNW) 12:47:53 145.935 - 145.965
BEESAT 3 17 Oct 12:48:53 12:52:21 29° 113° (ESE) 12:55:52 437.485
EO-79 17 Oct 13:02:19 13:06:06 31° 263° (W) 13:09:55 145.935-145.965
POLYITAN 1 17 Oct 13:06:11 13:09:52 28° 264° (W) 13:13:36 437.675
Oscar 19 17 Oct 13:10:24 13:14:56 32° 68° (ENE) 13:19:27 437.125/150
Gurwin Techsat 1B 17 Oct 13:15:25 13:19:41 25° 66° (ENE) 13:23:57 435.225
nSIGHT-1 17 Oct 13:17:57 13:19:56 15° 338° (NNW) 13:21:55 .
SPROUT 17 Oct 13:18:38 13:22:47 46° 99° (E) 13:26:55 437.525
QB50P2 17 Oct 13:27:35 13:30:06 15° 267° (W) 13:32:39 145.880/145.840
AO-85 17 Oct 13:30:51 13:33:11 15° 110° (ESE) 13:35:32 145.980
ESTCUBE 1 17 Oct 13:33:46 13:37:36 28° 291° (WNW) 13:41:25 437.505/2401.250
NANOSAT C BR1 17 Oct 13:34:11 13:36:49 16° 267° (W) 13:39:27 145.865
VELOX 1 17 Oct 13:37:36 13:41:55 51° 100° (E) 13:46:14 145.980
NO-84 17 Oct 13:42:24 13:43:15 11° 240° (WSW) 13:44:05 435.350 FM
ISS 17 Oct 13:42:56 13:44:33 13° 342° (NNW) 13:46:09 437.550
RS-15 17 Oct 13:46:02 13:51:49 15° 264° (W) 13:57:31 29.354- 29.394
DUCHIFAT 1 17 Oct 13:47:34 13:49:34 13° 268° (W) 13:51:33 145.980
M-CUBED/EXP-1 PRIME 17 Oct 13:50:29 13:53:58 69° 253° (WSW) 13:57:18 437.505
BEESAT 2 17 Oct 14:01:01 14:04:55 55° 117° (ESE) 14:08:53 435.950
SRMSAT 17 Oct 14:02:52 14:04:16 11° 187° (S) 14:05:40 437.500
BUGSAT 1 17 Oct 14:06:33 14:10:12 29° 264° (W) 14:13:53 437.445
50 SAT 17 Oct 14:11:43 14:14:43 31° 98° (E) 14:17:42 437.505
AO-7 17 Oct 14:16:19 14:22:45 26° 56° (NE) 14:29:09 .
BEESAT 3 17 Oct 14:26:37 14:29:54 23° 310° (NW) 14:33:10 437.485
Oscar 19 17 Oct 14:49:45 14:54:11 29° 264° (W) 14:58:38 437.125/150
DX 1 17 Oct 14:54:24 14:58:47 88° 99° (E) 15:03:10 434.975-435.025
Gurwin Techsat 1B 17 Oct 14:54:28 14:59:23 39° 262° (W) 15:04:21 435.225
SPROUT 17 Oct 14:55:52 14:58:15 15° 295° (WNW) 15:00:38 437.525
AO-85 17 Oct 15:09:35 15:13:13 37° 307° (NW) 15:16:54 145.980
ITAMSAT 1 17 Oct 15:15:04 15:19:33 31° 68° (ENE) 15:24:03 435.822/435.867
VELOX 1 17 Oct 15:15:31 15:17:54 14° 296° (WNW) 15:20:18 145.980
ITUPSAT 1 17 Oct 15:17:15 15:18:30 11° 90° (E) 15:19:46 437.325
MOZHAYETS 4 17 Oct 15:18:06 15:20:13 13° 91° (E) 15:22:20
UKube-1 17 Oct 15:25:26 15:29:43 65° 286° (WNW) 15:34:00 .
BEESAT 17 Oct 15:33:18 15:36:30 18° 93° (E) 15:39:41 436.000
Tancredo 1 17 Oct 15:36:46 15:37:39 12° 30° (NNE) 15:38:30 437.200
BEESAT 2 17 Oct 15:40:38 15:42:59 15° 315° (NW) 15:45:20 435.950
50 SAT 17 Oct 15:45:28 15:46:43 12° 293° (WNW) 15:47:58 437.505
AO-7 17 Oct 16:06:29 16:14:45 72° 254° (WSW) 16:23:04 .
nSIGHT-1 17 Oct 16:33:12 16:34:50 13° 19° (NNE) 16:36:26 .
